Find STARLINK-37656

NORAD ID: 799501000 Int'l Des: 2026-143A Constellation: starlink operational

Aktuelle Ansicht

3D-Globus wird geladen...

About STARLINK-37656

STARLINK-37656 (NORAD 799501000) is a starlink constellation satellite launched Jun 12, 2026

Über STARLINK-37656

Beschreibung wird geladen...

Nächste Überflüge

Passes for default location (London). Set your location on the main map for personalized predictions.

Höhenverlauf

Loading altitude history...

Zweizeiliger Elementsatz

1 99999C 2026143A 26173.18590278 .00480340 00000-0 740180-4 0 1739
2 99999 97.2825 216.0471 0011038 275.9586 170.0852 16.03899147 18
Epoch: 22. Juni 2026 • Age: 3 hours

Aktueller Status

Höhe 266.2 km
Geschwindigkeit 7.75 km/s
Subsatellitenpunkt 8.22°N, 162.36°W
Startdatum 12. Juni 2026
Alter 9 days
Typ internet

Most Searched